Powrót do katalogu

COSMOS 1823 DEB

AktywnyLEO
NORAD 39808·DEBRIS·🇷🇺 Russia

Wystrzelony Feb 20, 1987 z Plesetsk Cosmodrome

Loading…

Następne Przeloty (najbliższe 24 godziny)

TLE

NieaktualneSource: Space-Track

Epoka: Sep 4, 2026, 13:24 UTC

1 39808U 87020EG  26247.55895998  .00000060  00000-0  54559-3 0  9991
2 39808  73.6262 297.4514 0046991  59.7708 300.7978 12.44549987556208

Śledź COSMOS 1823 DEB w czasie rzeczywistym z AllMySat

Download on the App Store